Simultaneous Nadir Overpasses (SNOs) Predictions

Prediction of SNOs near equator between NOAA-19 and NPP Satellite Orbit:

Table of predicted SNOs near equator for the next 14.0 days since TLE Epoch: 2/1/2012
Index Date (NOAA-19) Time (NOAA-19) NOAA-19 Lat,Lon Date (NPP) Time (NPP) NPP Lat,Lon Distance(km) Time Diff (sec)
1 02/09/2012 00:21:29 -29.95, 12.47 02/09/2012 00:18:21 -29.74, 11.51 95.85 188
2 02/09/2012 01:12:35 29.96, 179.70 02/09/2012 01:09:10 29.76, 178.80 89.08 205
3 02/09/2012 02:03:35 -29.98, -13.06 02/09/2012 01:59:52 -29.80, -13.88 82.03 223
4 02/09/2012 02:54:41 29.99, 154.17 02/09/2012 02:50:41 29.82, 153.41 75.26 240
5 02/09/2012 03:45:40 -29.96, -38.57 02/09/2012 03:41:22 -29.79, -39.25 68.30 258
6 02/09/2012 04:36:46 29.96, 128.65 02/09/2012 04:32:11 29.81, 128.04 61.54 275
7 02/09/2012 05:27:46 -29.99, -64.10 02/09/2012 05:22:54 -29.90, -64.66 54.44 292
8 02/09/2012 06:18:52 29.99, 103.12 02/09/2012 06:13:43 29.92, 102.63 47.73 309
9 02/09/2012 07:09:51 -29.96, -89.62 02/09/2012 07:04:24 -29.89, -90.03 40.64 327
10 02/09/2012 08:00:57 29.97, 77.61 02/09/2012 07:55:13 29.91, 77.26 33.92 344
11 02/09/2012 08:51:57 -29.99,-115.15 02/09/2012 08:45:55 -29.94,-115.42 26.81 362
12 02/09/2012 09:43:03 30.00, 52.07 02/09/2012 09:36:44 29.96, 51.87 20.09 379
13 02/09/2012 10:34:02 -29.96,-140.66 02/09/2012 10:27:25 -29.93,-140.80 13.04 397
14 02/09/2012 11:25:08 29.97, 26.56 02/09/2012 11:18:14 29.95, 26.50 6.34 414
15 02/09/2012 12:14:39 -24.84,-164.81 02/09/2012 12:07:28 -24.84,-164.82 1.33 431
16 02/09/2012 12:58:45 0.23, 8.24 02/09/2012 12:51:18 0.24, 8.23 2.17 447
17 02/09/2012 13:48:44 3.10, 176.27 02/09/2012 13:41:02 3.09, 176.30 4.19 462
18 02/09/2012 14:40:15 -1.85, -16.81 02/09/2012 14:32:13 -1.83, -16.69 13.68 482
19 02/09/2012 15:31:25 1.03, 150.27 02/09/2012 15:23:08 0.98, 150.46 20.89 497
20 02/09/2012 16:22:56 0.24, -42.80 02/09/2012 16:14:19 0.28, -42.53 30.30 517
21 02/09/2012 17:14:05 -0.98, 124.30 02/09/2012 17:05:13 -1.07, 124.62 37.56 532
22 02/09/2012 18:05:36 2.26, -68.78 02/09/2012 17:56:24 2.33, -68.37 46.87 552
23 02/09/2012 18:56:46 -3.05, 98.30 02/09/2012 18:47:19 -3.17, 98.78 54.19 567
24 02/09/2012 19:55:35 29.95
